Regional Weather Roundup
Issued by NWS

Home | Current Version | Previous Version | Text Only | Print | Product List | Glossary On
Versions: 1 2 3 4 5 6 7 8 9 10 11 12 13 14 15 16 17 18 19 20 21 22 23 24 25 26 27 28 29 30 31 32 33 34 35 36 37 38 39 40 41 42 43 44 45 46 47 48 49 50
000
ASUS44 KOUN 041710
RWROK

WEATHER ROUNDUP FOR OKLAHOMA
NATIONAL WEATHER SERVICE NORMAN OK
1200 PM CDT FRI SEP 04 2015

NOTE: "FAIR" INDICATES FEW OR NO CLOUDS BELOW 12,000 FEET WITH NO
      SIGNIFICANT WEATHER AND/OR OBSTRUCTIONS TO VISIBILITY.

OKZ001>007-009>012-014-015-017-041800-
NORTHWEST OKLAHOMA AND THE PANHANDLE

CITY           SKY/WX    TMP DP  RH WIND       PRES   REMARKS
GAGE           SUNNY     90  62  39 S21G29    29.96S HX  90
GUYMON         MOSUNNY   84  54  35 S13       29.95R
ENID/WOODRING  MOSUNNY   91  66  43 S16       29.96S HX  94
$$

OKZ016-021>023-033>039-044-045-041800-
SOUTHWEST OKLAHOMA

CITY           SKY/WX    TMP DP  RH WIND       PRES   REMARKS
LAWTON/REGL    MOSUNNY   91  66  43 S12       29.97F HX  93
LAWTON/FT SILL MOSUNNY   91  69  47 S12       29.96F HX  95
FREDERICK      SUNNY     93  68  43 S14       29.94F HX  97
CLINTON        SUNNY     89  63  41 S20G29    30.00S HX  90
HOBART         SUNNY     92  65  40 S20       29.98S HX  94
ALTUS AFB      SUNNY     92  64  39 S15G21    29.96S HX  93
$$

OKZ018>020-024>031-041800-
CENTRAL OKLAHOMA

CITY           SKY/WX    TMP DP  RH WIND       PRES   REMARKS
OKLAHOMA CITY  MOSUNNY   89  69  51 S16       29.99S HX  93
OKC/WILEY POST MOSUNNY   90  68  48 S16       29.99S HX  94
OKC/TINKER AFB MOSUNNY   89  69  51 S15       29.99S HX  93
STILLWATER     SUNNY     89  70  53 S12       29.98F HX  94
GUTHRIE        MOSUNNY   91  66  43 S14       29.98S HX  93
$$

OKZ008-013-054>072-041800-
NORTHEAST OKLAHOMA

CITY           SKY/WX    TMP DP  RH WIND       PRES   REMARKS
TULSA          MOSUNNY   88  72  58 S14       29.98F HX  94
TULSA/JONES    SUNNY     89  70  53 S12       29.99F HX  94
PONCA CITY     SUNNY     88  69  53 SW9G18    29.98S HX  92
BARTLESVILLE   SUNNY     88  71  57 S7        30.01S HX  94
MUSKOGEE       SUNNY     87  72  60 S7        30.02S HX  93
$$

OKZ032-040>043-046>053-073>077-041800-
SOUTH CENTRAL/SOUTHEAST OKLAHOMA

CITY           SKY/WX    TMP DP  RH WIND       PRES   REMARKS
ARDMORE/DWNTWN MOSUNNY   90  64  43 S8G16     29.98S HX  91
MCALESTER      MOSUNNY   89  71  55 S9        30.01S HX  95
$$



USA.gov is the U.S. government's official web portal to all federal, state and local government web resources and services.